Location: Saint-Restitut
(44.3351°N, 4.7915°E)
Time: 20:22:41
(UTC+00:00)

Cosmos 2360 Rocket - Pass Details

Date: 03 February 2023
Orbit: 832 x 846 km, 71.0° (Epoch: 22 March)

Event Time Altitude Azimuth Distance (km) Brightness Sun altitude
Rises 19:47:04 0° 243° (WSW) 3,380 6.1 -31.4°
Reaches altitude 10° 19:49:58 10° 257° (WSW) 2,452 5.4 -31.9°
Maximum altitude 19:54:29 24° 310° (NW) 1,667 4.2 -32.7°
Enters shadow 19:57:56 14° 356° (N) 2,168 4.4 -33.3°
